| time (UTC) | temp F | wind direction | speed knots | gust knots | rain 1hr in | rain 24hr in | rain mn in | humidity % | barometer mb |
| 20260902123356 | 49 | 254 | 0.0 | 0.0 | 0.00 | 0.00 | 0.00 | 80 | 1011.3 |
| 20260902121837 | 49 | 269 | 0.0 | 0.0 | 0.00 | 0.00 | 0.00 | 80 | 1011.3 |
| 20260902120325 | 49 | 269 | 0.0 | 0.0 | 0.00 | 0.00 | 0.00 | 81 | 1011.4 |
| 20260902114841 | 49 | 228 | 0.0 | 0.0 | 0.00 | 0.00 | 0.00 | 81 | 1011.6 |
| 20260902113340 | 49 | 215 | 0.0 | 0.0 | 0.00 | 0.00 | 0.00 | 82 | 1011.3 |
| 20260902111826 | 49 | 246 | 0.0 | 0.0 | 0.00 | 0.00 | 0.00 | 82 | 1011.4 |
| 20260902110354 | 49 | 242 | 0.0 | 0.0 | 0.00 | 0.00 | 0.00 | 81 | 1011.7 |
| 20260902104841 | 49 | 242 | 0.0 | 0.0 | 0.00 | 0.00 | 0.00 | 80 | 1011.7 |
| 20260902103353 | 50 | 242 | 0.0 | 0.0 | 0.00 | 0.00 | 0.00 | 80 | 1011.7 |
| 20260902101901 | 50 | 243 | 0.0 | 0.0 | 0.00 | 0.00 | 0.00 | 78 | 1011.4 |
| 20260902100337 | 51 | 242 | 0.0 | 0.0 | 0.00 | 0.00 | 0.00 | 78 | 1011.8 |
| 20260902094829 | 51 | 257 | 0.0 | 0.0 | 0.00 | 0.00 | 0.00 | 79 | 1011.7 |
| 20260902093326 | 51 | 258 | 0.0 | 0.0 | 0.00 | 0.00 | 0.00 | 79 | 1011.9 |
| 20260902091826 | 51 | 270 | 0.0 | 0.0 | 0.00 | 0.00 | 0.00 | 79 | 1011.8 |
| 20260902090333 | 52 | 282 | 0.0 | 0.0 | 0.00 | 0.00 | 0.00 | 78 | 1011.8 |
| 20260902084839 | 52 | 277 | 0.0 | 0.0 | 0.00 | 0.00 | 0.00 | 77 | 1011.9 |
| 20260902083328 | 53 | 156 | 0.0 | 0.0 | 0.00 | 0.00 | 0.00 | 76 | 1011.9 |
| 20260902081826 | 54 | 156 | 0.0 | 0.0 | 0.00 | 0.00 | 0.00 | 74 | 1011.9 |
| 20260902080341 | 54 | 156 | 0.0 | 0.0 | 0.00 | 0.00 | 0.00 | 74 | 1011.9 |
| 20260902074834 | 54 | 152 | 0.0 | 0.0 | 0.00 | 0.00 | 0.00 | 73 | 1012.0 |
| 20260902073411 | 55 | 136 | 0.0 | 0.0 | 0.00 | 0.00 | 0.00 | 71 | 1012.0 |
| 20260902071858 | 55 | 136 | 0.0 | 0.0 | 0.00 | 0.00 | 0.00 | 70 | 1011.9 |
| 20260902070356 | 56 | 136 | 0.0 | 0.0 | 0.00 | 0.00 | 0.00 | 69 | 1012.1 |
| 20260902064829 | 56 | 136 | 0.0 | 0.0 | 0.00 | 0.00 | 0.00 | 68 | 1012.2 |
| 20260902063345 | 56 | 132 | 0.0 | 0.0 | 0.00 | 0.00 | 0.00 | 67 | 1012.1 |
| 20260902061840 | 57 | 132 | 0.0 | 0.0 | 0.00 | 0.00 | 0.00 | 66 | 1012.0 |
| 20260902060408 | 57 | 134 | 0.0 | 0.0 | 0.00 | 0.00 | 0.00 | 69 | 1012.1 |
| 20260902054903 | 58 | 132 | 0.0 | 0.0 | 0.00 | 0.00 | 0.00 | 68 | 1012.0 |
| 20260902053337 | 59 | 147 | 0.0 | 0.0 | 0.00 | 0.00 | 0.00 | 66 | 1011.8 |
| 20260902051859 | 59 | 147 | 0.0 | 0.0 | 0.00 | 0.00 | 0.00 | 65 | 1012.1 |
| 20260902050352 | 60 | 147 | 0.0 | 0.0 | 0.00 | 0.00 | 0.00 | 65 | 1012.1 |
| 20260902044832 | 60 | 147 | 0.0 | 0.0 | 0.00 | 0.00 | 0.00 | 64 | 1012.1 |
| 20260902043353 | 61 | 141 | 0.0 | 0.0 | 0.00 | 0.00 | 0.00 | 63 | 1012.3 |
| 20260902041847 | 61 | 141 | 0.0 | 0.0 | 0.00 | 0.00 | 0.00 | 62 | 1012.3 |
| 20260902040354 | 62 | 140 | 0.0 | 0.0 | 0.00 | 0.00 | 0.00 | 61 | 1012.2 |
| 20260902034830 | 64 | 140 | 0.0 | 0.0 | 0.00 | 0.00 | 0.00 | 58 | 1012.0 |
| 20260902033400 | 64 | 140 | 0.0 | 0.0 | 0.00 | 0.00 | 0.00 | 56 | 1012.1 |
| 20260902031842 | 65 | 140 | 0.0 | 0.0 | 0.00 | 0.00 | 0.00 | 55 | 1011.8 |
| 20260902030352 | 66 | 140 | 0.0 | 0.0 | 0.00 | 0.00 | 0.00 | 54 | 1011.8 |
| 20260902024900 | 67 | 140 | 0.0 | 0.0 | 0.00 | 0.00 | 0.00 | 53 | 1011.8 |
| 20260902023419 | 68 | 157 | 0.0 | 1.7 | 0.00 | 0.00 | 0.00 | 51 | 1011.6 |
| 20260902021853 | 69 | 128 | 0.0 | 1.7 | 0.00 | 0.00 | 0.00 | 50 | 1011.3 |
| 20260902020352 | 69 | 112 | 0.0 | 1.7 | 0.00 | 0.00 | 0.00 | 49 | 1011.2 |
| 20260902014841 | 70 | 146 | 0.0 | 1.7 | 0.00 | 0.00 | 0.00 | 47 | 1011.2 |
| 20260902013343 | 70 | 180 | 0.0 | 1.7 | 0.00 | 0.00 | 0.00 | 47 | 1011.4 |
| 20260902011851 | 71 | 126 | 0.0 | 1.7 | 0.00 | 0.00 | 0.00 | 47 | 1011.4 |
| 20260902010355 | 71 | 126 | 0.0 | 0.9 | 0.00 | 0.00 | 0.00 | 45 | 1011.4 |
| 20260902004851 | 72 | 163 | 0.0 | 2.6 | 0.00 | 0.00 | 0.00 | 44 | 1011.5 |
| 20260902003340 | 72 | 234 | 0.0 | 1.7 | 0.00 | 0.00 | 0.00 | 44 | 1011.6 |
| 20260902001835 | 73 | 211 | 0.0 | 1.7 | 0.00 | 0.00 | 0.00 | 42 | 1011.7 |
| 20260902000341 | 73 | 205 | 0.0 | 1.7 | 0.00 | 0.00 | 0.00 | 42 | 1011.8 |
| 20260901234827 | 73 | 31 | 0.0 | 4.3 | 0.00 | 0.00 | 0.00 | 42 | 1011.9 |
| 20260901233327 | 73 | 115 | 0.0 | 3.5 | 0.00 | 0.00 | 0.00 | 42 | 1011.9 |
| 20260901231849 | 73 | 221 | 0.9 | 7.0 | 0.00 | 0.00 | 0.00 | 42 | 1012.1 |
| 20260901230328 | 74 | 113 | 0.9 | 5.2 | 0.00 | 0.00 | 0.00 | 41 | 1012.3 |
| 20260901224855 | 75 | 232 | 0.9 | 2.6 | 0.00 | 0.00 | 0.00 | 42 | 1012.3 |
| 20260901223404 | 74 | 278 | 0.0 | 1.7 | 0.00 | 0.00 | 0.00 | 40 | 1012.3 |
| 20260901221841 | 74 | 246 | 0.0 | 2.6 | 0.00 | 0.00 | 0.00 | 42 | 1012.4 |
| 20260901220353 | 75 | 263 | 0.9 | 7.0 | 0.00 | 0.00 | 0.00 | 40 | 1012.3 |
| 20260901214834 | 77 | 287 | 0.0 | 1.7 | 0.00 | 0.00 | 0.00 | 38 | 1012.3 |
| 20260901213348 | 78 | 355 | 0.0 | 1.7 | 0.00 | 0.00 | 0.00 | 34 | 1012.1 |
| 20260901211832 | 78 | 286 | 0.0 | 1.7 | 0.00 | 0.00 | 0.00 | 35 | 1012.0 |
| 20260901210351 | 79 | 235 | 0.0 | 1.7 | 0.00 | 0.00 | 0.00 | 36 | 1011.9 |
| 20260901204850 | 80 | 201 | 0.0 | 3.5 | 0.00 | 0.00 | 0.00 | 37 | 1011.8 |
| 20260901203404 | 80 | 290 | 0.0 | 3.5 | 0.00 | 0.00 | 0.00 | 37 | 1011.8 |
| 20260901201849 | 81 | 109 | 0.0 | 2.6 | 0.00 | 0.00 | 0.00 | 35 | 1011.8 |
| 20260901200341 | 81 | 148 | 0.0 | 2.6 | 0.00 | 0.00 | 0.00 | 34 | 1011.8 |
| 20260901194841 | 82 | 98 | 0.0 | 4.3 | 0.00 | 0.00 | 0.00 | 34 | 1011.8 |
| 20260901193348 | 81 | 121 | 0.0 | 2.6 | 0.00 | 0.00 | 0.00 | 36 | 1011.9 |
| 20260901191828 | 81 | 254 | 0.0 | 2.6 | 0.00 | 0.00 | 0.00 | 37 | 1011.9 |
| 20260901190341 | 81 | 199 | 0.9 | 10.4 | 0.00 | 0.00 | 0.00 | 35 | 1012.3 |
| 20260901184839 | 81 | 78 | 0.9 | 4.3 | 0.00 | 0.00 | 0.00 | 37 | 1012.4 |
| 20260901183355 | 79 | 119 | 0.0 | 3.5 | 0.00 | 0.00 | 0.00 | 37 | 1012.5 |
| 20260901181849 | 76 | 203 | 0.0 | 1.7 | 0.00 | 0.00 | 0.00 | 40 | 1012.9 |
| 20260901180400 | 75 | 206 | 0.0 | 1.7 | 0.00 | 0.00 | 0.00 | 38 | 1013.0 |
| 20260901174837 | 74 | 254 | 0.0 | 1.7 | 0.00 | 0.00 | 0.00 | 41 | 1013.4 |
| 20260901173350 | 73 | 115 | 0.0 | 1.7 | 0.00 | 0.00 | 0.00 | 40 | 1013.5 |
| 20260901171846 | 72 | 311 | 0.0 | 0.9 | 0.00 | 0.00 | 0.00 | 37 | 1013.7 |
| 20260901170334 | 71 | 355 | 0.0 | 1.7 | 0.00 | 0.00 | 0.00 | 39 | 1013.8 |
| 20260901164843 | 71 | 295 | 0.0 | 0.9 | 0.00 | 0.00 | 0.00 | 40 | 1014.0 |
| 20260901163337 | 70 | 55 | 0.0 | 1.7 | 0.00 | 0.00 | 0.00 | 38 | 1013.9 |
| 20260901161850 | 69 | 17 | 0.0 | 1.7 | 0.00 | 0.00 | 0.00 | 39 | 1014.0 |
| 20260901160341 | 66 | 318 | 0.0 | 1.7 | 0.00 | 0.00 | 0.00 | 42 | 1014.0 |
| 20260901154836 | 63 | 321 | 0.0 | 1.7 | 0.00 | 0.00 | 0.00 | 44 | 1014.2 |
| 20260901153345 | 60 | 46 | 0.0 | 1.7 | 0.00 | 0.00 | 0.00 | 49 | 1014.2 |
| 20260901151839 | 58 | 360 | 0.0 | 0.0 | 0.00 | 0.00 | 0.00 | 51 | 1014.2 |
| 20260901150330 | 56 | 360 | 0.0 | 1.7 | 0.00 | 0.00 | 0.00 | 56 | 1014.2 |
| 20260901144827 | 54 | 295 | 0.0 | 0.9 | 0.00 | 0.00 | 0.00 | 52 | 1014.1 |
| 20260901143327 | 52 | 279 | 0.0 | 0.0 | 0.00 | 0.00 | 0.00 | 62 | 1014.3 |
| 20260901141844 | 52 | 279 | 0.0 | 0.0 | 0.00 | 0.00 | 0.00 | 66 | 1013.9 |
| 20260901140327 | 52 | 279 | 0.0 | 0.0 | 0.00 | 0.00 | 0.00 | 64 | 1014.1 |
| 20260901134828 | 51 | 279 | 0.0 | 0.0 | 0.00 | 0.00 | 0.00 | 66 | 1014.0 |
| 20260901133348 | 51 | 279 | 0.0 | 0.0 | 0.00 | 0.00 | 0.00 | 64 | 1013.7 |
| 20260901131850 | 51 | 279 | 0.0 | 0.0 | 0.00 | 0.00 | 0.00 | 63 | 1013.8 |
| 20260901130401 | 51 | 279 | 0.0 | 0.0 | 0.00 | 0.00 | 0.00 | 61 | 1014.0 |
| 20260901124829 | 51 | 279 | 0.0 | 0.0 | 0.00 | 0.00 | 0.00 | 60 | 1013.9 |